Location: Unspecified
(0.0000°N, 0.0000°E)
Time: 13:38:44
(UTC+00:00)

THORAD DELTA 1 DEB - Pass Details

Date: 17 February 2026
Orbit: 1442 x 1568 km, 101.4° (Epoch: 22 February)

Event Time Altitude Azimuth Distance (km) Brightness Sun altitude
Exits shadow 20:46:14 55° 166° (SSE) 1,833 ? -37.1°
Drops below altitude 10° 20:52:56 10° 188° (S) 3,748 ? -38.8°
Sets 20:55:47 0° 190° (S) 4,723 ? -39.4°
